Torna al catalogo

SL-14 DEB *

AttivoPO
NORAD 47086·DEBRIS·🇷🇺 Russia

Lanciato Aug 15, 1991 da Plesetsk Cosmodrome

Loading…

Prossimi Passaggi (prossime 24 ore)

TLE

AggiornatoSource: Space-Track

Epoca: Sep 13, 2026, 10:54 UTC

1 47086U 91056DL  26256.45425013  .00000686  00000-0  29476-3 0  9992
2 47086  82.5534 162.3284 0011076  78.8740 281.3687 14.23418563302691

Traccia SL-14 DEB * in tempo reale con AllMySat

Download on the App Store